SCP
0 0 0 0 0 0 0 0 0 0 0 0 0 0 0 0 0 0 0 0 0 0 0 0 0 0 0 0 0 0 0 0 1 1 1 1 1 1 0 0 0 0 0 0
0 0 0 0 0 0 0 0 0 0 0 0 0 0 0 0 0 0 0 0 0 0 0 0 0 0 0 0 0 0 0 0 0 1 1 1 1 1 0 0 0 0 0 0
0 0 0 0 0 0 0 0 0 0 0 0 0 0 0 0 0 0 0 0 0 0 0 0 0 0 0 0 0 0 0 0 0 0 0 0 0 1 0 0 0 0 0 0
0 0 0 0 0 0 0 0 0 0 0 0 0 0 0 0 0 0 0 0 0 0 0 0 0 0 0 0 0 0 0 0 0 0 0 0 0 0 0 0 0 0 0 0
0 0 0 0 0 0 0 0 0 0 0 0 0 0 0 0 0 0 0 0 0 0 0 0 0 0 0 0 0 0 0 0 0 0 0 0 0 0 0 0 0 0 0 0
0 0 0 0 0 0 0 0 0 0 0 0 0 0 0 0 0 0 0 0 0 0 0 0 0 0 0 0 0 0 0 0 0 0 0 0 0 0 0 0 0 0 0 0
0 0 0 0 0 0 0 0 0 0 0 0 0 0 0 0 0 0 0 0 0 0 0 0 0 0 0 0 0 0 0 0 0 0 0 0 0 0 0 0 0 0 0 0
0 0 0 0 0 0 0 0 0 0 0 0 0 0 0 0 0 0 0 0 0 0 0 0 0 0 0 0 0 0 0 0 0 0 0 0 0 0 0 0 0 0 0 0
0 0 0 0 0 0 0 0 0 0 0 0 0 0 0 0 0 0 0 0 0 0 0 0 0 0 0 0 0 0 0 0 0 0 0 0 0 1 1 1 0 0 0 0
0 0 0 0 0 0 0 0 0 0 0 0 0 0 0 0 0 0 0 0 0 0 0 0 0 0 0 0 0 0 0 0 0 0 0 0 1 1 1 1 0 0 0 0
0 0 0 0 0 0 0 0 0 0 0 0 0 0 0 0 0 0 0 0 0 0 0 0 0 0 0 0 0 0 0 0 0 0 0 1 1 1 1 1 0 0 0 0
0 0 0 0 0 0 0 0 0 0 0 0 0 0 0 0 0 0 0 0 0 0 0 0 0 0 0 0 0 0 0 0 0 0 0 1 1 1 1 0 0 0 0 0
0 0 0 0 0 0 0 0 0 0 0 0 0 0 0 0 0 0 0 0 0 0 0 0 0 0 0 0 0 0 0 0 0 0 1 1 2 1 1 0 0 0 0 0
0 0 0 0 0 0 0 0 0 0 0 0 0 0 0 0 0 0 0 0 0 0 0 0 0 0 0 0 0 0 0 0 0 0 1 1 1 1 0 0 0 0 0 0
0 0 0 0 0 0 0 0 0 0 0 0 0 0 0 0 0 0 0 0 0 0 0 0 0 0 0 0 0 0 0 0 0 0 1 1 1 0 0 0 0 0 0 0
0 0 0 0 0 0 0 0 0 0 0 0 0 0 0 0 0 0 0 0 0 0 0 0 0 0 0 0 0 0 0 0 0 0 0 0 0 0 0 0 0 0 0 0
0 0 0 0 0 0 0 0 0 0 0 0 0 0 0 0 0 0 0 0 0 0 0 0 0 0 0 0 0 0 0 0 0 0 0 0 0 0 0 0 0 0 0 0
0 0 0 0 0 0 0 0 0 0 0 0 0 0 0 0 0 0 0 0 0 0 0 0 0 0 0 0 0 0 0 0 0 0 0 0 0 0 0 0 0 0 0 0
0 0 0 0 0 0 0 0 0 0 0 0 0 0 0 0 0 0 0 0 0 0 0 0 0 0 0 0 0 0 0 0 0 0 0 0 0 0 0 0 0 0 0 0
0 0 0 0 0 0 0 0 0 0 0 0 0 0 0 0 0 0 0 0 0 0 0 0 0 0 0 0 0 0 0 0 0 0 0 0 0 0 0 0 0 0 0 0
0 0 0 0 0 0 0 0 0 0 0 0 0 0 0 0 0 0 0 0 0 0 0 0 0 0 0 0 0 0 0 0 0 0 0 0 0 0 0 0 0 0 0 0
0 0 0 0 0 0 0 0 0 0 0 0 0 0 0 0 0 0 0 0 0 0 0 0 0 0 0 0 0 0 0 0 0 0 0 0 0 0 0 0 0 0 0 0
0 0 0 0 0 0 0 0 0 0 0 0 0 0 0 0 0 0 0 0 0 0 0 0 0 0 0 0 0 0 0 0 0 0 0 0 0 0 0 0 0 0 0 0
0 0 0 0 0 0 0 0 0 0 0 0 0 0 0 0 0 0 0 0 0 0 0 0 0 0 0 0 0 0 0 0 0 0 0 0 0 0 0 0 0 0 0 0
0 0 0 0 0 0 0 0 0 0 0 0 0 0 0 0 0 0 0 0 0 0 0 0 0 0 0 0 0 0 0 0 0 0 0 0 0 0 0 0 0 0 0 0
0 0 0 0 0 0 0 0 0 0 0 0 0 0 0 0 0 0 0 0 0 0 0 0 0 0 0 0 0 0 0 0 0 0 0 0 0 0 0 0 0 0 0 0
0 0 0 0 0 0 0 0 0 0 0 0 0 0 0 0 0 0 0 0 0 0 0 0 0 0 0 0 0 0 0 0 0 0 0 0 0 0 0 0 0 0 0 0
Wind_Speed
7 8 6 6 7 5 6 6 7 8 8 9 7 7 7 6 6 5 5 5 5 5 4 3 3 3 2 2 2 2 2 2 1 1 1 1 2 2 1 1 1 1 1 0
6 6 6 8 9 8 8 8 10 11 12 8 7 6 6 5 5 6 6 6 6 5 4 4 3 3 2 2 2 2 2 2 2 2 2 2 2 1 1 1 1 1 1 0
5 3 5 8 7 8 7 6 6 9 9 7 6 6 6 5 5 5 6 6 5 4 3 3 2 2 2 2 2 2 2 2 2 2 2 2 2 2 1 1 1 1 1 0
4 4 6 6 1 3 6 7 7 7 7 6 6 6 4 3 4 5 5 5 5 4 4 3 3 2 2 2 2 2 2 2 2 2 2 1 1 1 1 1 0 0 0 0
2 4 8 4 2 1 3 6 4 5 7 6 6 4 3 4 4 4 4 4 4 4 4 3 3 2 2 2 2 2 2 2 1 2 2 1 1 1 1 1 0 0 0 0
3 4 6 3 1 1 1 5 3 2 4 5 4 3 4 4 5 5 5 4 3 3 3 3 3 2 2 2 2 1 1 1 1 1 1 1 0 1 1 1 1 1 1 0
5 6 7 2 0 1 1 5 4 3 4 3 2 4 4 4 4 4 4 4 4 4 3 3 3 2 2 2 1 1 1 1 1 1 1 0 0 0 1 1 1 1 1 1
4 5 8 1 3 3 4 3 3 4 4 4 4 3 3 3 3 3 4 4 4 4 3 3 3 2 2 2 2 1 1 1 1 1 1 1 1 1 1 1 1 1 0 1
7 7 3 3 3 3 2 3 4 4 5 4 4 3 3 2 2 3 3 3 3 3 4 4 3 3 2 2 2 1 2 1 1 1 1 1 1 1 1 1 1 1 1 1
5 6 4 4 3 3 4 4 5 4 4 3 3 3 3 2 2 2 3 3 3 3 3 4 4 4 3 3 2 1 1 1 1 1 1 1 1 1 0 1 1 1 1 1
6 6 5 4 4 5 5 4 4 4 3 3 3 3 2 2 2 2 2 2 2 2 3 4 4 4 4 3 2 2 1 1 1 1 1 1 1 1 1 1 1 2 1 1
6 4 3 5 4 4 4 5 5 4 4 3 2 2 2 2 2 2 2 3 3 3 3 4 4 4 4 3 2 1 1 1 1 1 1 1 1 1 2 2 2 2 2 2
5 4 4 6 6 5 5 5 4 3 3 3 2 1 1 2 2 2 2 3 3 3 3 3 3 4 4 3 2 1 0 1 1 1 1 1 1 1 1 2 2 2 2 2
4 4 5 5 5 5 4 4 3 3 2 2 1 1 1 1 2 2 3 3 3 3 3 3 3 4 4 3 2 1 1 1 1 1 1 1 1 1 1 1 1 1 2 2
4 3 5 5 4 4 3 3 3 3 3 2 1 1 1 1 2 2 3 3 3 3 3 3 3 4 4 2 2 2 1 1 1 1 1 1 1 1 1 1 1 1 1 1
4 4 4 3 4 4 3 3 3 3 2 1 1 1 1 1 1 2 2 2 3 3 4 4 4 4 3 2 2 1 1 2 2 1 1 1 1 1 1 1 1 1 0 0
3 4 4 4 5 4 3 3 3 3 2 1 1 1 1 1 2 2 3 3 2 3 3 3 4 3 3 2 1 1 1 1 2 2 1 1 1 1 1 1 1 1 1 0
4 5 4 4 5 5 4 3 2 2 2 1 1 0 0 1 2 2 3 3 3 3 3 3 3 3 3 2 1 1 1 1 1 1 1 1 1 1 1 1 1 1 1 1
3 3 4 4 3 3 3 2 2 1 1 0 0 1 1 1 2 2 2 3 3 4 4 3 5 4 3 3 2 1 1 1 1 1 1 2 2 1 1 1 1 1 1 1
3 3 3 3 3 2 2 2 1 1 1 0 0 1 1 2 2 2 2 2 2 2 3 3 4 3 2 2 3 1 1 1 1 1 1 1 1 1 1 1 1 1 1 1
3 2 2 2 2 2 2 1 1 1 1 0 0 1 1 2 2 2 2 3 3 3 3 5 3 2 2 2 2 1 1 1 1 1 1 1 1 1 1 1 1 1 1 1
2 2 2 2 2 2 2 1 1 0 0 1 1 1 1 2 2 2 2 2 3 4 3 2 2 3 3 3 1 1 1 1 1 1 1 1 1 1 1 1 1 1 1 1
2 2 2 1 1 1 2 1 1 0 0 0 1 1 1 2 2 2 3 2 2 4 3 2 3 4 4 2 1 1 1 1 1 1 1 1 1 1 1 1 1 1 1 1
1 1 1 1 0 0 1 1 1 1 1 1 1 1 1 2 2 1 2 4 5 5 3 3 5 4 4 2 1 1 1 1 1 1 1 1 1 1 1 1 1 1 1 1
1 1 1 1 1 1 1 1 1 1 1 1 1 2 1 1 2 2 2 3 5 4 2 3 4 4 2 1 1 1 1 1 1 1 1 1 1 1 1 1 1 1 1 1
1 2 2 2 1 1 1 1 1 1 1 1 2 1 1 1 1 2 2 2 3 3 2 2 2 2 1 1 1 1 1 1 2 1 1 1 1 1 1 1 1 1 1 0
1 1 1 1 1 1 1 1 1 1 1 1 2 2 1 1 1 1 2 2 2 2 2 2 2 1 1 1 1 1 1 1 1 1 1 1 1 1 1 1 1 1 0 0
Wind_Direction
269 277 273 264 266 249 230 233 243 269 282 290 303 314 319 321 326 331 335 342 348 344 349 10 18 13 7 12 9 20 41 51 71 84 93 85 83 76 68 84 105 137 146 165
276 263 263 269 262 249 247 247 253 271 279 283 298 309 315 323 332 334 337 341 345 348 359 4 6 357 4 8 12 30 47 42 50 71 81 77 81 80 67 65 71 71 81 100
279 303 303 269 246 226 232 230 234 249 261 293 308 314 315 323 336 331 334 339 337 339 346 343 344 358 356 359 34 51 45 43 46 59 72 70 66 66 45 56 66 46 37 21
289 321 258 249 214 211 236 251 242 259 285 302 299 304 312 333 327 326 333 337 340 351 354 359 4 6 12 28 56 66 56 39 33 44 59 63 64 63 18 41 82 64 285 267
259 272 273 270 260 217 236 275 250 259 285 302 320 318 312 348 354 343 342 346 348 359 1 5 12 15 29 34 53 64 56 37 23 37 39 52 45 17 353 334 329 331 273 150
235 255 259 264 358 11 80 287 303 290 293 312 343 317 295 345 350 352 357 358 358 360 2 2 359 15 38 33 42 47 34 16 22 31 41 41 8 331 324 321 318 337 354 350
233 249 265 275 134 91 170 271 328 334 310 304 269 255 283 323 340 349 350 352 358 4 360 352 355 16 29 23 8 340 10 37 27 25 30 10 32 357 354 341 348 354 3 354
208 230 258 170 134 190 240 302 322 317 311 300 296 305 320 332 339 349 353 356 1 5 357 357 4 20 22 360 337 17 59 56 28 4 356 10 37 359 6 345 336 322 6 3
202 222 254 185 211 243 293 300 304 303 302 298 301 306 317 325 332 342 347 348 359 4 359 0 4 11 10 339 349 40 64 52 18 4 2 12 13 330 340 329 312 312 320 308
262 265 267 254 258 281 290 286 294 293 289 292 291 294 304 313 321 334 340 344 352 3 359 353 355 359 350 339 352 37 54 15 8 8 355 351 333 316 325 306 296 296 290 292
258 274 295 279 278 293 301 303 303 302 297 285 288 291 296 306 313 324 337 347 360 357 348 343 348 351 350 349 358 21 27 0 355 347 335 336 331 313 295 270 268 278 270 258
248 260 259 277 295 300 299 296 292 294 300 292 282 293 314 316 318 332 341 351 353 346 344 343 345 342 343 344 350 9 7 352 335 323 329 336 337 341 336 308 331 327 332 319
256 282 276 281 299 305 294 291 293 292 290 298 308 306 311 317 333 348 349 346 336 328 330 335 344 339 336 343 350 359 306 301 313 323 322 321 318 312 321 335 341 340 351 356
272 282 281 284 292 305 309 314 319 321 315 313 319 326 341 340 342 339 326 325 324 325 328 332 339 334 330 338 348 343 322 307 311 290 290 282 282 289 292 296 313 336 349 7
290 277 264 284 298 313 325 326 324 316 315 323 335 332 322 312 313 315 320 332 336 334 329 331 332 325 333 338 340 333 333 315 288 283 288 291 291 294 299 300 296 306 343 352
300 295 291 295 297 307 317 315 301 294 298 304 317 317 308 311 317 317 323 337 341 329 322 322 318 317 329 332 332 330 333 331 325 301 291 293 292 293 298 296 294 288 308 334
287 290 296 299 300 302 299 294 294 295 293 280 280 301 325 345 334 328 329 334 333 323 323 322 317 323 329 327 325 326 327 320 332 333 312 304 307 302 291 290 294 296 305 334
254 263 274 282 290 298 302 307 309 301 286 276 278 322 317 300 305 319 328 335 342 338 330 331 335 335 331 334 331 329 334 338 356 354 337 332 324 318 309 304 318 338 356 16
280 281 287 290 289 289 296 304 305 308 329 360 249 268 288 299 309 318 329 337 336 329 328 343 344 348 338 338 344 344 347 347 347 348 345 337 347 355 351 351 11 21 14 27
303 306 308 315 321 313 310 319 333 354 2 22 11 344 335 321 318 322 323 311 300 298 314 332 335 333 335 335 345 345 344 341 342 345 355 7 12 8 12 12 7 16 32 45
300 306 312 312 319 326 325 332 347 335 343 31 41 307 307 311 312 311 312 308 310 327 334 330 332 327 327 330 339 351 351 351 351 356 5 6 7 7 8 15 14 9 20 27
285 288 296 302 313 324 334 346 348 339 22 25 7 346 325 314 313 306 283 274 300 324 335 322 320 323 330 338 346 351 353 356 1 4 6 1 356 352 359 10 12 7 15 17
277 281 288 291 293 312 333 338 325 277 214 265 273 282 285 291 293 295 302 305 315 323 328 317 320 328 338 352 354 355 360 7 1 354 352 349 346 343 350 2 3 2 4 0
270 274 275 279 33 352 320 318 320 305 265 272 264 258 265 291 299 282 281 308 315 317 315 314 325 332 342 358 1 1 0 359 351 342 340 340 343 345 350 350 346 340 336 329
235 220 210 199 213 240 249 270 291 283 288 287 282 273 262 257 266 291 304 303 308 317 317 317 325 333 342 342 349 350 348 340 341 344 341 333 330 331 330 330 327 311 300 301
222 230 230 225 220 218 210 213 253 269 284 301 302 293 289 286 279 287 296 299 304 317 322 315 320 330 336 333 328 330 328 328 335 342 344 335 328 325 323 321 308 297 294 300
220 225 224 237 227 208 207 223 244 261 261 268 288 292 297 302 301 301 306 307 311 315 314 313 315 318 325 325 325 326 327 330 335 336 334 326 319 310 306 297 292 292 301 312